This is the latest recevied weather packets stored in our database for station/object KC4GS-13. If no packets are shown the sender has not sent any weather packets the latest 10 day(s).
| Time | Temp. | Humidity | Pressure | Rain* | Wind** | Luminosity | Snow |
|---|---|---|---|---|---|---|---|
| 1778067579 | 17.22° C | 88% | 1016.1 hPa | 0 mm | - | 41 W/m² | - |
| 1778067277 | 17.22° C | 88% | 1016.2 hPa | 0 mm | - | 35 W/m² | - |
| 1778066973 | 16.67° C | 89% | 1016 hPa | 0 mm | - | 40 W/m² | - |
| 1778066671 | 16.67° C | 89% | 1016 hPa | 0 mm | - | 49 W/m² | - |
| 1778066367 | 16.11° C | 89% | 1015.7 hPa | 0 mm | - | 48 W/m² | - |
| 1778066066 | 16.11° C | 89% | 1015.2 hPa | 0 mm | - | 31 W/m² | - |
| 1778065762 | 16.11° C | 89% | 1015.5 hPa | 0 mm | - | 21 W/m² | - |
| 1778065460 | 16.11° C | 89% | 1015.6 hPa | 0 mm | - | 14 W/m² | - |
| 1778065157 | 16.11° C | 89% | 1015.4 hPa | 0 mm | - | 14 W/m² | - |
| 1778064853 | 15.56° C | 89% | 1015.5 hPa | 0 mm | - | 11 W/m² | - |
| 1778064550 | 15.56° C | 89% | 1015.1 hPa | 0 mm | - | 6 W/m² | - |
| 1778064249 | 15.56° C | 89% | 1014.9 hPa | 0 mm | - | 3 W/m² | - |
| 1778063946 | 15.56° C | 89% | 1014.9 hPa | 0 mm | - | 2 W/m² | - |
| 1778063643 | 15.56° C | 89% | 1015.1 hPa | 0 mm | - | 0 W/m² | - |
| 1778063340 | 15.56° C | 89% | 1015 hPa | 0 mm | - | 0 W/m² | - |
| 1778063038 | 15.56° C | 89% | 1015 hPa | 0 mm | - | 0 W/m² | - |
| 1778062735 | 15.56° C | 89% | 1014.8 hPa | 0 mm | - | 0 W/m² | - |
| 1778062431 | 15.56° C | 88% | 1015 hPa | 0 mm | - | 0 W/m² | - |
| 1778062129 | 15.56° C | 88% | 1015 hPa | 0 mm | - | 0 W/m² | - |
| 1778061827 | 15.56° C | 88% | 1015 hPa | 0 mm | - | 0 W/m² | - |
| 1778061525 | 15.56° C | 88% | 1014.9 hPa | 0 mm | - | 0 W/m² | - |
| 1778061222 | 15.56° C | 88% | 1015.1 hPa | 0 mm | - | 0 W/m² | - |
| 1778060919 | 15.56° C | 88% | 1015.1 hPa | 0 mm | - | 0 W/m² | - |
| 1778060618 | 15.56° C | 87% | 1015.1 hPa | 0 mm | - | 0 W/m² | - |
| 1778060315 | 16.11° C | 87% | 1015 hPa | 0 mm | - | 0 W/m² | - |
* Rain latest hour (hover to see other rain measurements)
** Current wind speed in m/s (hover to see current wind gust speed)